Regional Weather Roundup
Issued by NWS Upton, NY

Current Version | Previous Version | Graphics & Text | Print | Product List | Glossary Off
Versions: 1 2 3 4 5 6 7 8 9 10 11 12 13 14 15 16 17 18 19 20 21 22 23 24 25 26 27

000
ASUS41 KOKX 212006
RWROKX

REGIONAL WEATHER ROUNDUP
NATIONAL WEATHER SERVICE NEW YORK NY
400 PM EDT TUE MAR 21 2017

NOTE: "FAIR" INDICATES FEW OR NO CLOUDS BELOW 12,000 FEET WITH NO
SIGNIFICANT WEATHER AND/OR OBSTRUCTIONS TO VISIBILITY.

NYZ071-072-176-178-NJZ106-104-212100-
NEW YORK CITY METRO AREA

CITY           SKY/WX    TMP DP  RH WIND       PRES   REMARKS
Central Park   SUNNY     58  30  34 CALM      29.86F
Wall St Helipt CLEAR     59  33  37 SW7       29.85F
LaGuardia APRT MOSUNNY   60  30  32 W9        29.83F
Kennedy INTL   MOSUNNY   56  31  38 SW15      29.86F
Breezy Point     N/A     50 N/A N/A SW8G14      N/A
Newark/Liberty PTSUNNY   59  31  34 VRB5      29.84F
Teterboro      SUNNY     59  33  37 NW5       29.82F
$$

NYZ177-179-078>081-212100-
LONG ISLAND NEW YORK

CITY           SKY/WX    TMP DP  RH WIND       PRES   REMARKS
Jones Beach      N/A     50 N/A N/A SW10G16     N/A
Matinecock PT    N/A     50 N/A N/A S3          N/A
Farmingdale    SUNNY     57  29  34 NW9G17    29.85F
MacArthur/ISP  MOSUNNY   56  27  32 SW10      29.84F
Shirley        SUNNY     53  23  31 SW9       29.85F
Westhampton    SUNNY     52  19  27 SW7       29.86F
East Hampton     N/A     52  20  29 SW12      29.83F
Montauk          N/A     52  21  29 W8        29.85F
$$

NYZ052-065-067-212100-
HUDSON VALLEY

CITY           SKY/WX    TMP DP  RH WIND       PRES   REMARKS
White Plains   MOSUNNY   56  28  34 NW9       29.82F
Newburgh       MOSUNNY   54  32  43 NW12      29.81F
Montgomery     SUNNY     56  29  35 W13       29.80F
Poughkeepsie   SUNNY     53  27  36 SW6       29.81F
Albany         MOSUNNY   50  31  48 NW14      29.82F
$$

NJZ001-105-106-008-010-013-015-019>022-104-212100-
NEW JERSEY

CITY           SKY/WX    TMP DP  RH WIND       PRES   REMARKS
Newark/Liberty PTSUNNY   59  31  34 VRB5      29.84F
Teterboro      SUNNY     59  33  37 NW5       29.82F
Caldwell       SUNNY     58  31  35 W7        29.84F
Somerville     SUNNY     58  33  39 W6        29.83F
Linden           N/A     57  31  37 W8        29.86F
Sussex         SUNNY     56  30  37 VRB6      29.83F
Andover          N/A     54  30  40 SW9       29.83F
Trenton        SUNNY     57  34  41 W7        29.86F
Millville      CLOUDY    58  36  43 W8        29.88F
Atlantic City  CLOUDY    59  32  36 W9G16     29.88F
Wrightstown    SUNNY     58  35  41 W7        29.84F
Toms River     SUNNY     59  33  37 NW13      29.86F
Belmar         SUNNY    N/A N/A N/A W9        29.86F
$$

PAZ047>061-062-071-212100-
EASTERN PENNSYLVANIA

CITY           SKY/WX    TMP DP  RH WIND       PRES   REMARKS
Philadelphia   PTSUNNY   58  34  40 W9        29.88F
Allentown      SUNNY     56  37  49 SW14G21   29.86F
Scranton       SUNNY     51  32  48 SW6       29.84F
$$

CTZ002-004>006-009-010-012-RIZ004-006-007-MAZ004-011-015-212100-
SOUTHERN NEW ENGLAND
 IN CT

CITY           SKY/WX    TMP DP  RH WIND       PRES   REMARKS
Bradley INTL   MOSUNNY   54  29  38 W12       29.80F
Hartford       SUNNY     55  31  39 NW13      29.81F
Danbury        SUNNY     52  26  36 SW10G16   29.83F
Wtrbury/Oxford MOSUNNY   54  27  35 N7        29.82F
Bridgeport     SUNNY     52  28  39 SW14      29.83F
Meriden        SUNNY     57  28  33 VRB6      29.81F
New Haven      MOSUNNY   49  27  42 SW14      29.83F
Chester          N/A     52  21  30 SW9G17    29.81F
Groton         SUNNY     49  28  44 SW14      29.81F
Wilimantic     SUNNY     55  29  36 W8G16     29.80F

 IN RI

CITY           SKY/WX    TMP DP  RH WIND       PRES   REMARKS
Providence     PTSUNNY   55  27  34 W15G24    29.79F
Block Island   SUNNY     48  29  47 SW15      29.83F
Westerly       SUNNY     51  27  39 SW10      29.83F
 IN MA

CITY           SKY/WX    TMP DP  RH WIND       PRES   REMARKS
Boston         PTSUNNY   47  28  47 SE7       29.79F
Worcester      SUNNY     48  24  39 W10       29.76F
Westfield      SUNNY     51  30  44 NW12      29.79F
Provincetown   PTSUNNY   50  20  30 S10       29.80F
Nantucket      MOSUNNY   44  33  65 SW10      29.83F
$$

ANZ330-335-338-340-345-350-353-355-212100-
COASTAL MARINE OBSERVATIONS


STATION/POSITION TIME  SKY/WX   TEMP    WIND        PRES    VSBY  WAVE
                                AIR SEA DIR/SP/G                  HT/PER
                 (UTC)          (F)     (DEG/KT/KT) (MB)    (MI)  (FT/S)
NY HARB ENTRANCE 1850            45 43  210/  6/  6 1011.9          2/10
20 S FIRE ISLAND 1950            43 42  250/  6/  8 1011.4          3/11
GREAT SOUTH BAY  NOT AVBL
23 SSW MONTAUK P 1850            44 42              1011.7          3/11
15 E BARNEGAT LI 1930               43                N/A           4/10
HUDSON CANYON    1850            45 47  260/ 10/ 12 1012.7          4/10
KINGS POINT      1948            56 39              1010.3
EXECUTION ROCKS  NOT AVBL
CENTRAL LI SOUND 1915            42     240/  6/  8   N/A           0
EASTERN LI SOUND NOT AVBL
ROBBINS REEF     1948            55     250/ 12/ 16 1010.7
$$


>>>>>>>>>>>>>>>>>>>>>>>>>>>> KEY <<<<<<<<<<<<<<<<<<<<<<<<<<<
>                                                          <
>     SKY/WX - Sky Condition/Present Weather               <
>     TMP    - Temperature in Fahrenheit                   <
>     DP     - Dew Point in Fahrenheit                     <
>     RH     - Relative Humidity in Percent                <
>     WIND   - Direction (from) and Speed in MPH           <
>     PRES   - Mean Sea Level Pressure (inches of Hg)      <
>     WCI    - Wind Chill Index                            <
>     VSB    - VISIBILITY IN MILES                         <
>     HX     - HEAT INDEX                                  <
>     TC     - TEMPERATURE IN CELSIUS                      <
>     VRB    - VARIABLE WIND DIRECTION                     <
>                                                          <
>>>>>>>>>>>>>>>>>>>>>>>>>>>> KEY <<<<<<<<<<<<<<<<<<<<<<<<<<<




USA.gov is the U.S. government's official web portal to all federal, state and local government web resources and services.